Showing default

HULIANWANG DIGUI-166, 68658

Orbit data source: Space-Track

HULIANWANG DIGUI-166, 68658 is a payload satellite owned by Zhongguo Xingwang (CN) in LEO that was launched on Wed, 08 Apr 2026 UTC via a CHANG ZHENG 6A launch vehicle from the Taiyaun Space Center, China (TSC). Payload-class satellites include a variety of spacecraft equipped with specific instruments for various scientific and technological missions. These include communications satellites like Starlink; space stations such as the ISS; scientific satellites like the Hubble; Earth observation satellites from companies like Planet Labs, Umbra, and HawkEye 360; GPS; miniature CubeSats for education and research; and military/defense satellites.

Loading next visibility...
Identifier
68658, 2026-076C
Orbit
LEO
Country
Flag of CNCN / PRC
Related business
Manufacturer
SECM
Mission
Operational spacecraft
Bus & Motor
XINGWANG S, Unknown motor
Mass
~800 kg wet, ~800 kg dry
Launch date (UTC)
2026-04-08 (2 months ago)
Launch vehicle
CHANG ZHENG 6A
Launch site
Taiyaun Space Center, China (TSC)
Object type
Payload
Rocket body
Debris
Shape & HBR
Unknown shape, 14.5 m
Radar Cross Section
RCS unknown

Expand to show TLE details & history
Last TLE update: 1 day ago

TLE from 1 day ago
0 HULIANWANG DIGUI-166
1 68658U 26076C   26144.56937331 -.00000218  00000-0 -46598-3 0  9996
2 68658  86.4938  51.8443 0001796  64.0295 296.1030 13.34697661  6246
Epoch: 2026-05-24T13:39Z
TLE epoch observation values (Epoch: 2026-05-24T13:39:53.853Z)
Latitude
-0.00003°
Longitude
-35.29972°
Altitude
1,131.412 km
Speed
7.287 km/s
True Right ascension
03h 27m 22s
True Declination
0° 00' 00"
Sunlit
Object was in daylight at epoch
Visualization orbit readout
Latitude
Unknown
Longitude
Unknown
Altitude
Unknown
Speed
Unknown
Apparent Right ascension
Unknown
Apparent Declination
Unknown
Sunlit
N/A
Visualization observer readout
Local Sidereal Time
09:12:04
Azimuth
Unknown
Elevation
Unknown
Doppler factor
Unknown
Orbital elements
Apogee altitude
1,127.549 km
Perigee altitude
1,124.854 km
Semi-major axis
7,504.338 km
Eccentricity
0.00018
Inclination
86.4938°
RAAN
51.8443°
Arg. of periapsis
64.0295°
True anomaly
296.08452°
Mean anomaly
296.103°
Eccentric anomaly
296.09376°
Mean motion
3.33868 °/min
Orbital period
107.83 mins
BSTAR
-0.00046598
Loading maneuver chart data...
Computing Atmospheric mass density...
Loading historical data...
Loading historical data...
Loading historical data...
Loading historical data...
Loading historical data...
Loading historical data...
Loading historical data...

Documentation

Showing up to 5 results
|